SCOUT B DEB, 2516

Orbit data source: Space-Track

SCOUT B DEB, 2516 is space debris in LEO originally from a launch on Fri, 10 Jun 1966 UTC launched from the Wallops Island (WLPIS). Debris objects in space refer to the collection of defunct objects orbiting the Earth. Examples of debris include non-operational satellites, rocket bodies, and fragments generated from explosions, collisions, or faulty payload assembly.

Loading next visibility...
SCOUT B DEB details
Identifier
2516, 1966-052D
Orbit
LEO
Last TLE update2 days ago
Origin
Flag of USUSAF SSD (US)
ManufacturerUnknown
MissionSpacecraft
Bus & MotorUnknown
MassUnknown
Launch date (UTC)
1966-06-10 (59 years ago)
Launch vehicleUnknown
Launch site
Wallops Island (WLPIS)
Object type
Payload
Rocket body
Debris
Shape & HBRUnknown
Radar Cross SectionSmall (<0.1 m²)

Expand to show TLE details & history

TLE from 2 days ago
0 SCOUT B DEB
1  2516U 66052D   25045.61331566  .00000262  00000-0  57985-3 0  9997
2  2516  41.0203 164.4510 2219505 315.3858  28.7818 10.00602567275256
Epoch: 2025-02-14T14:43Z
Definitive object data (Epoch: 2025-02-14T14:43:10.473Z)
Latitude0.00002°
Longitude158.78482°
Altitude1,091.794 km
Speed7.933 km/s
True Right ascension10h 57m 48s
True Declination0° 00' 00"
Sunlit
Object was in full shadow at TLE epoch
Visualization TLE readout
Latitude31.78405°
Longitude-72.28469°
Altitude4,620.707 km
Speed5.358 km/s
Apparent Right ascension18h 21m 26s
Apparent Declination7° 33' 03"
Sunlit
Object is in daylight
Visualization observer readout
Local Sidereal Time03:56:35
Azimuth316.353° NNW
Elevation-31.947°
Doppler factor1
Orbital elements
Apogee altitude4,740.107 km
Perigee altitude701.155 km
Semi-major axis9,098.768 km
Eccentricity0.2219505
Inclination41.0203°
RAAN164.451°
Arg. of periapsis315.3858°
True anomaly44.68285°
Mean anomaly28.7818°
Eccentric anomaly36.31258°
Mean motion2.50074 °/min
BSTAR0.00057985
Orbital period143.96 mins
Loading maneuver chart data...
Loading historical data...
Loading historical data...
Loading historical data...
Loading historical data...
Loading historical data...
Loading historical data...
Loading historical data...
Other satellites on launch #52 in the year 1966 (1966-06-10 UTC)

SCOUT B DEB Visibility forecast

Observer location: undefined°, undefined

Span
Click to sort rows by Start time (UTC) header in descending order
Start Az.
Max El. time (UTC)
Max El. Az.
Max El.
End time (UTC)
End Az.
27 mins2025-02-17 09:57:58.301Z211.636° SW2025-02-17 10:06:58.301Z136.702° SSE38.444°2025-02-17 10:24:58.301Z70.132° E
39 mins2025-02-17 12:28:58.301Z258.221° W2025-02-17 12:40:58.301Z280.535° WNW44.983°2025-02-17 13:07:58.301Z84.008° E
48 mins2025-02-17 15:01:58.301Z282.5° WNW2025-02-17 15:19:58.301Z217.834° SW44.91°2025-02-17 15:49:58.301Z114.659° SE
49 mins2025-02-17 17:36:58.301Z288.814° WNW2025-02-17 17:59:58.301Z219.787° SW39.027°2025-02-17 18:25:58.301Z153.556° SSE
29 mins2025-02-17 20:19:58.301Z274.079° WNW2025-02-17 20:33:58.301Z243.863° WSW17.83°2025-02-17 20:48:58.301Z209.124° SW
|